Weather History for Goldsboro, NC

Change the Weather History Date:

Tuesday, December 11, 2012

  Actual Average Record
Temperature  
Mean Temperature 58 °F -  
Max Temperature 67 °F 56 °F 78 °F (2007)
Min Temperature 49 °F 37 °F 27 °F (2013)
Degree Days  
Heating Degree Days 6    
Growing Degree Days 8 (Base 50)    
Moisture  
Dew Point 51 °F    
Average Humidity 73    
Maximum Humidity 94    
Minimum Humidity 56    
Precipitation  
Precipitation 0.00 in - - ()
Sea Level Pressure  
Sea Level Pressure 29.97 in    
Wind  
Wind Speed 7 mph (NNE)    
Max Wind Speed 10 mph    
Max Gust Speed -    
Visibility 10 miles    
Events Rain    
Averages and records for this station are not official NWS values.
T = Trace of Precipitation, MM = Missing Value Source: NWS Daily Summary

Daily Weather History Graph

Daily Weather History Graph

Search for Another Location

Airport:

Trip Planner

Search our weather history database for the weather conditions in past years. The results will help you decide how hot, cold, wet, or windy it might be!

Date:

Astronomy

Dec. 11, 2012 Rise Set
Actual Time 7:10 AM EST 4:59 PM EST
Civil Twilight 6:42 AM EST 5:28 PM EST
Nautical Twilight 6:10 AM EST 5:59 PM EST
Astronomical Twilight 5:40 AM EST 6:30 PM EST
Moon 5:05 AM EST (12/11) 3:35 PM EST (12/11)
Length of Visible Light 10h 45m
Length of Day
9h 48m
Waning Crescent, 4% of the Moon is Illuminated
Dec 11
Waning Crescent
Dec 13
New
Dec 20
First Quarter
Dec 28
Full
Jan 4
Last Quarter

Hourly Weather History & Observations

Time (EST) Temp. Dew Point Humidity Pressure Visibility Wind Dir Wind Speed Gust Speed Precip Events Conditions
12:55 AM 64.4 °F 56.1 °F 74% 29.75 in 10.0 mi SW 8.1 mph - N/A   Overcast
1:55 AM 64.8 °F 55.8 °F 73% 29.76 in 10.0 mi SW 8.1 mph - N/A   Overcast
2:55 AM 64.8 °F 55.9 °F 73% 29.76 in 10.0 mi SSW 6.9 mph - N/A   Overcast
3:55 AM 63.7 °F 56.3 °F 77% 29.77 in 10.0 mi South 4.6 mph - N/A   Overcast
4:55 AM 62.4 °F 56.7 °F 81% 29.78 in 10.0 mi SSW 4.6 mph - N/A   Overcast
5:55 AM 61.2 °F 57.0 °F 86% 29.79 in 10.0 mi WSW 3.5 mph - N/A   Overcast
6:55 AM 60.3 °F 57.7 °F 91% 29.82 in 10.0 mi Calm Calm - N/A   Clear
7:55 AM 59.0 °F 57.2 °F 94% 29.84 in 10.0 mi Calm Calm - N/A   Clear
8:55 AM 63.0 °F 59.2 °F 87% 29.88 in 10.0 mi WSW 6.9 mph - N/A   Clear
9:55 AM 65.8 °F 58.3 °F 77% 29.91 in 10.0 mi West 10.4 mph - N/A   Mostly Cloudy
10:31 AM 66.2 °F 57.2 °F 73% 29.92 in 10.0 mi WNW 8.1 mph - N/A   Overcast
10:42 AM 66.2 °F 53.6 °F 64% 29.93 in 10.0 mi Variable 5.8 mph - N/A   Overcast
10:47 AM 66.2 °F 53.6 °F 64% 29.92 in 10.0 mi North 10.4 mph - N/A   Overcast
10:55 AM 65.5 °F 53.4 °F 65% 29.93 in 10.0 mi North 9.2 mph - N/A   Overcast
11:05 AM 64.4 °F 53.6 °F 68% 29.92 in 10.0 mi North 6.9 mph - N/A   Overcast
11:14 AM 66.2 °F 53.6 °F 64% 29.93 in 10.0 mi NNW 5.8 mph - N/A   Mostly Cloudy
11:55 AM 66.6 °F 54.0 °F 64% 29.93 in 10.0 mi Variable 4.6 mph - N/A   Mostly Cloudy
12:55 PM 66.7 °F 53.2 °F 62% 29.91 in 10.0 mi Calm Calm - N/A   Partly Cloudy
1:55 PM 67.8 °F 54.3 °F 62% 29.90 in 10.0 mi Calm Calm - N/A   Scattered Clouds
2:55 PM 67.6 °F 51.6 °F 56% 29.92 in 10.0 mi North 9.2 mph - N/A   Mostly Cloudy
3:55 PM 65.8 °F 50.4 °F 57% 29.95 in 10.0 mi North 6.9 mph - N/A   Overcast
4:55 PM 64.2 °F 49.8 °F 59% 29.97 in 10.0 mi NNE 5.8 mph - N/A   Overcast
5:55 PM 60.8 °F 50.4 °F 68% 30.01 in 10.0 mi NE 9.2 mph - N/A   Overcast
6:55 PM 57.2 °F 46.0 °F 66% 30.04 in 10.0 mi NNE 9.2 mph - N/A   Mostly Cloudy
7:55 PM 55.6 °F 45.7 °F 69% 30.06 in 10.0 mi NE 8.1 mph - N/A   Overcast
8:06 PM 55.4 °F 46.4 °F 72% 30.06 in 10.0 mi NNE 9.2 mph - N/A   Overcast
8:37 PM 55.4 °F 46.4 °F 72% 30.07 in 10.0 mi NNE 10.4 mph - N/A   Overcast
8:55 PM 54.5 °F 46.0 °F 73% 30.07 in 10.0 mi NE 9.2 mph - N/A   Overcast
9:01 PM 53.6 °F 46.4 °F 77% 30.08 in 10.0 mi NE 9.2 mph - N/A Rain Light Rain
9:15 PM 53.6 °F 46.4 °F 77% 30.08 in 10.0 mi NE 10.4 mph - N/A   Overcast
9:24 PM 53.6 °F 46.4 °F 77% 30.08 in 10.0 mi NE 9.2 mph - N/A Rain Light Rain
9:35 PM 51.8 °F 46.4 °F 82% 30.07 in 10.0 mi NE 10.4 mph - N/A   Overcast
9:39 PM 51.8 °F 46.4 °F 82% 30.08 in 10.0 mi NE 9.2 mph - N/A   Overcast
9:55 PM 52.3 °F 45.5 °F 78% 30.09 in 10.0 mi NE 6.9 mph - 0.00 in   Overcast
10:13 PM 51.8 °F 44.6 °F 76% 30.10 in 10.0 mi NE 9.2 mph - N/A   Overcast
10:55 PM 51.6 °F 43.9 °F 75% 30.12 in 10.0 mi NE 8.1 mph - N/A   Overcast
10:56 PM 51.8 °F 44.6 °F 76% 30.12 in 10.0 mi ENE 9.2 mph - N/A Rain Light Rain
11:06 PM 51.8 °F 44.6 °F 76% 30.12 in 10.0 mi NE 8.1 mph - N/A   Overcast
11:19 PM 50.0 °F 42.8 °F 76% 30.12 in 10.0 mi NE 8.1 mph - N/A Rain Light Rain
11:38 PM 50.0 °F 42.8 °F 76% 30.11 in 10.0 mi NE 6.9 mph - N/A   Overcast
11:55 PM 49.8 °F 42.6 °F 76% 30.11 in 10.0 mi NNE 6.9 mph - 0.00 in   Overcast